Back to catalog

FENGYUN 1C DEB

AlivePO
NORAD 41003·DEBRIS·🇨🇳 China

Launched May 10, 1999 from Taiyuan Satellite Launch Center

Loading…

Next Passes (next 24 hours)

TLE

FreshSource: Space-Track

Epoch: Sep 12, 2026, 03:36 UTC

1 41003U 99025EXH 26255.15013377  .00021796  00000-0  23021-2 0  9995
2 41003  98.9674 211.4068 0053835 144.1292 216.3556 14.88192138564673

Track FENGYUN 1C DEB in real time with AllMySat

Download on the App Store